RYR998W LPPR-LIEE

Flight info

Callsign RYR998W
Flight time 2h 8m
Altitude 38000
Route BELDU DCT CANAR DCT ADORO DCT FITSE DCT DGO N725 OSPOK/N0431F390 DCT NOLVI DCT ORKUM/N0430F380 DCT ELSAG DCT ALG DCT USEPI DCT SODIO DCT TEKSA DCT RAMEN DCT KOVAS
Aircraft B738/M-SDE3FGILRWY/SB1

Departure

Time 2026-05-01 11:52
Airport Francisco de Sá Carneiro Airport (LPPR)

Arrival

Time 2026-05-01 14:00
Airport Cagliari Elmas Airport (LIEE)
Time Latitude Longitude Altitude Speed Heading
2026-05-01 11:17 41.24019 -8.67315 244 ft 0 kts 90°
2026-05-01 11:41 41.24019 -8.67318 244 ft 2 kts 90°
2026-05-01 11:41 41.24019 -8.67352 244 ft 4 kts 90°
2026-05-01 11:42 41.24019 -8.67381 243 ft 4 kts 96°
2026-05-01 11:42 41.24027 -8.67412 241 ft 4 kts 140°
2026-05-01 11:42 41.24043 -8.67423 241 ft 0 kts 169°
2026-05-01 11:46 41.24042 -8.67423 241 ft 2 kts 169°
2026-05-01 11:46 41.23981 -8.67431 240 ft 12 kts 206°
2026-05-01 11:46 41.23935 -8.67528 239 ft 12 kts 258°
2026-05-01 11:46 41.23919 -8.67634 231 ft 11 kts 259°
2026-05-01 11:47 41.23908 -8.67708 226 ft 7 kts 259°
2026-05-01 11:47 41.23902 -8.67749 225 ft 0 kts 258°
2026-05-01 11:50 41.23900 -8.67761 223 ft 8 kts 258°
2026-05-01 11:51 41.23904 -8.67872 222 ft 13 kts 308°
2026-05-01 11:51 41.23999 -8.67914 219 ft 24 kts 349°
2026-05-01 11:51 41.24406 -8.68021 208 ft 95 kts 348°
2026-05-01 11:51 41.25263 -8.68244 182 ft 153 kts 349°
2026-05-01 11:52 41.26391 -8.68520 587 ft 165 kts 349°
2026-05-01 11:52 41.27497 -8.68812 1352 ft 164 kts 349°
2026-05-01 11:52 41.28681 -8.69131 1786 ft 180 kts 349°
2026-05-01 11:52 41.29935 -8.69454 2393 ft 185 kts 349°
2026-05-01 11:53 41.31217 -8.69753 3026 ft 190 kts 349°
2026-05-01 11:53 41.32521 -8.70092 3685 ft 191 kts 351°
2026-05-01 11:53 41.33861 -8.69847 4100 ft 208 kts 29°
2026-05-01 11:53 41.34896 -8.68429 4311 ft 228 kts 64°
2026-05-01 11:54 41.35235 -8.66342 4811 ft 236 kts 87°
2026-05-01 11:54 41.35287 -8.64074 5142 ft 256 kts 90°
2026-05-01 11:54 41.35309 -8.61666 5609 ft 269 kts 89°
2026-05-01 11:54 41.35357 -8.59153 6268 ft 273 kts 88°
2026-05-01 11:55 41.35435 -8.56611 7001 ft 276 kts 88°
2026-05-01 11:55 41.35538 -8.54046 7745 ft 279 kts 87°
2026-05-01 11:55 41.35662 -8.51453 8484 ft 282 kts 86°
2026-05-01 11:55 41.35802 -8.48833 9229 ft 286 kts 86°
2026-05-01 11:56 41.35954 -8.46181 9971 ft 289 kts 86°
2026-05-01 11:56 41.36115 -8.43481 10547 ft 300 kts 86°
2026-05-01 11:56 41.36291 -8.40589 10754 ft 324 kts 86°
2026-05-01 11:56 41.36481 -8.37543 11294 ft 334 kts 86°
2026-05-01 11:57 41.36679 -8.34437 12002 ft 339 kts 86°
2026-05-01 11:57 41.36881 -8.31297 12727 ft 342 kts 86°
2026-05-01 11:57 41.37086 -8.28112 13470 ft 346 kts 86°
2026-05-01 11:57 41.37292 -8.24900 14222 ft 350 kts 86°
2026-05-01 11:58 41.37501 -8.21655 14970 ft 354 kts 86°
2026-05-01 11:58 41.37711 -8.18374 15702 ft 358 kts 86°
2026-05-01 11:58 41.38133 -8.11749 17110 ft 365 kts 86°
2026-05-01 11:59 41.38346 -8.08361 17794 ft 369 kts 86°
2026-05-01 11:59 41.38562 -8.04943 18470 ft 373 kts 86°
2026-05-01 11:59 41.38778 -8.01486 19111 ft 377 kts 86°
2026-05-01 12:00 41.39214 -7.94464 20354 ft 384 kts 86°
2026-05-01 12:00 41.39434 -7.90902 20948 ft 388 kts 86°
2026-05-01 12:00 41.39876 -7.83678 22093 ft 395 kts 86°
2026-05-01 12:01 41.40099 -7.80010 22650 ft 398 kts 86°
2026-05-01 12:01 41.40322 -7.76319 23190 ft 401 kts 86°
2026-05-01 12:01 41.40546 -7.72599 23716 ft 405 kts 86°
2026-05-01 12:01 41.40770 -7.68848 24208 ft 408 kts 86°
2026-05-01 12:02 41.40995 -7.65066 24695 ft 411 kts 86°
2026-05-01 12:02 41.41220 -7.61252 25157 ft 415 kts 86°
2026-05-01 12:02 41.41447 -7.57405 25607 ft 418 kts 86°
2026-05-01 12:02 41.41673 -7.53528 26041 ft 421 kts 86°
2026-05-01 12:03 41.41901 -7.49621 26470 ft 425 kts 86°
2026-05-01 12:03 41.42128 -7.45682 26882 ft 428 kts 86°
2026-05-01 12:03 41.42357 -7.41705 27267 ft 431 kts 87°
2026-05-01 12:03 41.42585 -7.37699 27619 ft 436 kts 87°
2026-05-01 12:04 41.42814 -7.33659 28015 ft 438 kts 87°
2026-05-01 12:04 41.43040 -7.29654 28406 ft 440 kts 87°
2026-05-01 12:04 41.43269 -7.25567 28788 ft 442 kts 87°
2026-05-01 12:04 41.43497 -7.21473 29133 ft 445 kts 87°
2026-05-01 12:05 41.43725 -7.17337 29483 ft 448 kts 86°
2026-05-01 12:05 41.44180 -7.09017 30151 ft 453 kts 87°
2026-05-01 12:05 41.44408 -7.04822 30468 ft 455 kts 87°
2026-05-01 12:06 41.44635 -7.00609 30794 ft 457 kts 87°
2026-05-01 12:06 41.44862 -6.96369 31112 ft 458 kts 87°
2026-05-01 12:06 41.45084 -6.92171 31429 ft 460 kts 87°
2026-05-01 12:06 41.45309 -6.87911 31696 ft 462 kts 87°
2026-05-01 12:07 41.45534 -6.83623 31975 ft 463 kts 87°
2026-05-01 12:07 41.45757 -6.79334 32350 ft 462 kts 87°
2026-05-01 12:07 41.45977 -6.75068 32775 ft 460 kts 87°
2026-05-01 12:07 41.46195 -6.70825 33191 ft 458 kts 87°
2026-05-01 12:08 41.46410 -6.66583 33530 ft 457 kts 87°
2026-05-01 12:08 41.46624 -6.62353 33850 ft 457 kts 87°
2026-05-01 12:08 41.46835 -6.58131 34195 ft 456 kts 87°
2026-05-01 12:08 41.47042 -6.53968 34531 ft 455 kts 87°
2026-05-01 12:09 41.47250 -6.49761 34814 ft 455 kts 87°
2026-05-01 12:09 41.47456 -6.45545 35105 ft 454 kts 87°
2026-05-01 12:09 41.47661 -6.41342 35403 ft 454 kts 87°
2026-05-01 12:09 41.47864 -6.37144 35669 ft 454 kts 87°
2026-05-01 12:10 41.48066 -6.32940 35907 ft 454 kts 87°
2026-05-01 12:10 41.49193 -6.24677 36437 ft 455 kts 70°
2026-05-01 12:10 41.50363 -6.20758 36682 ft 455 kts 68°
2026-05-01 12:11 41.52809 -6.12960 37162 ft 454 kts 68°
2026-05-01 12:11 41.54018 -6.09075 37434 ft 453 kts 68°
2026-05-01 12:11 41.55200 -6.05230 37652 ft 453 kts 68°
2026-05-01 12:12 41.56383 -6.01340 37899 ft 451 kts 68°
2026-05-01 12:12 41.57558 -5.97451 38156 ft 450 kts 68°
2026-05-01 12:12 41.59905 -5.89638 38188 ft 454 kts 68°
2026-05-01 12:13 41.62238 -5.81850 38173 ft 447 kts 68°
2026-05-01 12:13 41.64536 -5.74160 38171 ft 444 kts 68°
2026-05-01 12:14 41.66820 -5.66496 38168 ft 443 kts 68°
2026-05-01 12:14 41.69096 -5.58840 38174 ft 443 kts 69°
2026-05-01 12:15 41.71367 -5.51178 38174 ft 443 kts 69°
2026-05-01 12:15 41.73622 -5.43544 38181 ft 444 kts 69°
2026-05-01 12:16 41.75893 -5.35833 38176 ft 445 kts 69°
2026-05-01 12:16 41.78169 -5.28082 38178 ft 446 kts 69°
2026-05-01 12:17 41.80438 -5.20332 38177 ft 447 kts 69°
2026-05-01 12:17 41.82705 -5.12569 38180 ft 448 kts 69°
2026-05-01 12:18 41.84956 -5.04831 38188 ft 449 kts 69°
2026-05-01 12:18 41.87221 -4.97025 38185 ft 449 kts 69°
2026-05-01 12:19 41.89483 -4.89205 38182 ft 449 kts 69°
2026-05-01 12:19 41.91739 -4.81379 38185 ft 448 kts 69°
2026-05-01 12:20 41.93988 -4.73559 38184 ft 448 kts 69°
2026-05-01 12:20 41.96210 -4.65806 38181 ft 447 kts 69°
2026-05-01 12:21 41.98435 -4.58016 38186 ft 445 kts 69°
2026-05-01 12:21 42.00649 -4.50246 38182 ft 445 kts 69°
2026-05-01 12:22 42.02482 -4.43794 38184 ft 444 kts 69°
2026-05-01 12:22 42.04683 -4.36024 38184 ft 443 kts 69°
2026-05-01 12:23 42.06871 -4.28274 38183 ft 442 kts 69°
2026-05-01 12:23 42.09048 -4.20538 38182 ft 442 kts 69°
2026-05-01 12:24 42.11208 -4.12845 38185 ft 441 kts 69°
2026-05-01 12:24 42.13373 -4.05107 38185 ft 442 kts 69°
2026-05-01 12:25 42.16617 -3.93466 38185 ft 442 kts 69°
2026-05-01 12:26 42.18778 -3.85686 38184 ft 443 kts 69°
2026-05-01 12:26 42.21999 -3.74035 38187 ft 444 kts 69°
2026-05-01 12:27 42.25223 -3.62324 38188 ft 444 kts 69°
2026-05-01 12:28 42.28442 -3.50573 38184 ft 445 kts 69°
2026-05-01 12:29 42.31657 -3.38784 38185 ft 445 kts 70°
2026-05-01 12:29 42.34845 -3.27036 38185 ft 445 kts 70°
2026-05-01 12:30 42.38027 -3.15250 38184 ft 444 kts 70°
2026-05-01 12:31 42.40142 -3.07388 38173 ft 444 kts 70°
2026-05-01 12:31 42.42248 -2.99535 38175 ft 444 kts 70°
2026-05-01 12:32 42.44237 -2.91698 38154 ft 443 kts 78°
2026-05-01 12:32 42.44396 -2.83433 38165 ft 440 kts 101°
2026-05-01 12:32 42.43663 -2.79423 38177 ft 438 kts 107°
2026-05-01 12:33 42.41967 -2.71494 38166 ft 439 kts 107°
2026-05-01 12:33 42.40274 -2.63546 38166 ft 439 kts 107°
2026-05-01 12:34 42.38617 -2.55602 38158 ft 439 kts 107°
2026-05-01 12:34 42.36969 -2.47648 38158 ft 439 kts 107°
2026-05-01 12:35 42.35326 -2.39743 38160 ft 440 kts 107°
2026-05-01 12:35 42.33662 -2.31775 38159 ft 440 kts 107°
2026-05-01 12:36 42.31994 -2.23813 38156 ft 441 kts 107°
2026-05-01 12:36 42.30316 -2.15836 38154 ft 441 kts 107°
2026-05-01 12:37 42.28637 -2.07881 38158 ft 441 kts 107°
2026-05-01 12:37 42.26950 -1.99925 38165 ft 441 kts 107°
2026-05-01 12:38 42.25251 -1.91971 38166 ft 440 kts 107°
2026-05-01 12:38 42.23550 -1.84032 38175 ft 440 kts 107°
2026-05-01 12:39 42.21847 -1.76105 38174 ft 440 kts 107°
2026-05-01 12:39 42.20144 -1.68208 38179 ft 440 kts 107°
2026-05-01 12:40 42.18428 -1.60283 38189 ft 440 kts 107°
2026-05-01 12:40 42.16705 -1.52352 38182 ft 440 kts 107°
2026-05-01 12:41 42.14977 -1.44426 38186 ft 440 kts 107°
2026-05-01 12:41 42.13244 -1.36505 38182 ft 440 kts 107°
2026-05-01 12:42 42.11508 -1.28599 38187 ft 440 kts 107°
2026-05-01 12:42 42.09778 -1.20750 38185 ft 440 kts 108°
2026-05-01 12:43 42.08019 -1.12852 38181 ft 440 kts 108°
2026-05-01 12:43 42.06255 -1.04968 38191 ft 439 kts 108°
2026-05-01 12:44 42.04490 -0.97093 38193 ft 439 kts 108°
2026-05-01 12:45 42.00962 -0.81429 38195 ft 438 kts 108°
2026-05-01 12:45 41.99194 -0.73576 38196 ft 438 kts 108°
2026-05-01 12:46 41.97423 -0.65721 38201 ft 439 kts 108°
2026-05-01 12:46 41.95645 -0.57873 38205 ft 439 kts 108°
2026-05-01 12:47 41.93860 -0.50016 38204 ft 440 kts 108°
2026-05-01 12:47 41.92075 -0.42186 38204 ft 441 kts 108°
2026-05-01 12:48 41.90270 -0.34302 38208 ft 441 kts 108°
2026-05-01 12:48 41.88455 -0.26413 38214 ft 442 kts 108°
2026-05-01 12:49 41.86633 -0.18517 38211 ft 443 kts 108°
2026-05-01 12:49 41.84820 -0.10681 38210 ft 443 kts 108°
2026-05-01 12:50 41.82988 -0.02791 38214 ft 443 kts 108°
2026-05-01 12:50 41.81138 0.05148 38216 ft 443 kts 108°
2026-05-01 12:51 41.79309 0.12972 38208 ft 443 kts 108°
2026-05-01 12:52 41.76501 0.24754 38212 ft 442 kts 109°
2026-05-01 12:52 41.73681 0.36477 38211 ft 440 kts 108°
2026-05-01 12:53 41.70910 0.48177 38210 ft 439 kts 108°
2026-05-01 12:54 41.69059 0.55954 38209 ft 438 kts 109°
2026-05-01 12:54 41.66285 0.67546 38214 ft 438 kts 109°
2026-05-01 12:55 41.63303 0.79138 38330 ft 444 kts 110°
2026-05-01 12:55 41.62270 0.83047 38508 ft 444 kts 110°
2026-05-01 12:56 41.61246 0.86936 38733 ft 443 kts 110°
2026-05-01 12:56 41.60225 0.90827 38936 ft 443 kts 110°
2026-05-01 12:56 41.59207 0.94713 39097 ft 443 kts 110°
2026-05-01 12:56 41.58188 0.98600 39211 ft 444 kts 110°
2026-05-01 12:57 41.57162 1.02507 39209 ft 447 kts 110°
2026-05-01 12:57 41.54082 1.14221 39226 ft 443 kts 109°
2026-05-01 12:58 41.52246 1.22005 39230 ft 442 kts 108°
2026-05-01 12:59 41.49574 1.33783 39234 ft 439 kts 108°
2026-05-01 12:59 41.46868 1.45414 39239 ft 439 kts 108°
2026-05-01 13:00 41.44131 1.57080 39244 ft 440 kts 108°
2026-05-01 13:01 41.41361 1.68813 39243 ft 443 kts 109°
2026-05-01 13:02 41.38426 1.80450 39242 ft 444 kts 110°
2026-05-01 13:07 41.21189 2.67971 39240 ft 442 kts 103°
2026-05-01 13:08 41.19839 2.75940 39244 ft 442 kts 103°
2026-05-01 13:08 41.18485 2.83896 39252 ft 442 kts 103°
2026-05-01 13:09 41.17125 2.91857 39257 ft 442 kts 103°
2026-05-01 13:09 41.15991 2.98464 39255 ft 442 kts 103°
2026-05-01 13:10 41.14396 3.07721 39249 ft 443 kts 103°
2026-05-01 13:10 41.13017 3.15684 39250 ft 443 kts 103°
2026-05-01 13:11 41.11856 3.22361 39251 ft 443 kts 103°
2026-05-01 13:11 41.10239 3.31622 39248 ft 444 kts 103°
2026-05-01 13:12 41.09075 3.38262 39250 ft 444 kts 104°
2026-05-01 13:12 41.07671 3.46242 39244 ft 445 kts 104°
2026-05-01 13:13 41.06260 3.54224 39237 ft 445 kts 104°
2026-05-01 13:13 41.04833 3.62203 39240 ft 445 kts 104°
2026-05-01 13:14 41.03399 3.70174 39239 ft 445 kts 104°
2026-05-01 13:14 41.01960 3.78154 39239 ft 444 kts 104°
2026-05-01 13:15 41.00522 3.86101 39239 ft 444 kts 104°
2026-05-01 13:15 40.99088 3.94006 39236 ft 444 kts 104°
2026-05-01 13:16 40.97639 4.01970 39229 ft 444 kts 104°
2026-05-01 13:16 40.96188 4.09910 39228 ft 444 kts 104°
2026-05-01 13:17 40.93274 4.25762 39231 ft 443 kts 104°
2026-05-01 13:18 40.91074 4.37639 39236 ft 443 kts 104°
2026-05-01 13:18 40.89601 4.45558 39230 ft 444 kts 104°
2026-05-01 13:19 40.88137 4.53485 39230 ft 444 kts 104°
2026-05-01 13:20 40.85952 4.65343 39232 ft 445 kts 104°
2026-05-01 13:20 40.84934 4.73395 39236 ft 445 kts 97°
2026-05-01 13:21 40.83915 4.85589 39237 ft 446 kts 96°
2026-05-01 13:21 40.83195 4.93727 39241 ft 446 kts 97°
2026-05-01 13:22 40.82438 5.01863 39240 ft 446 kts 97°
2026-05-01 13:22 40.81671 5.09936 39239 ft 446 kts 97°
2026-05-01 13:23 40.80894 5.18062 39240 ft 446 kts 97°
2026-05-01 13:23 40.80113 5.26188 39239 ft 446 kts 97°
2026-05-01 13:24 40.79324 5.34324 39233 ft 447 kts 97°
2026-05-01 13:25 40.78131 5.46529 39241 ft 447 kts 97°
2026-05-01 13:25 40.77333 5.54618 39243 ft 447 kts 97°
2026-05-01 13:26 40.76523 5.62763 39237 ft 447 kts 97°
2026-05-01 13:26 40.75709 5.70888 39241 ft 447 kts 97°
2026-05-01 13:27 40.74888 5.79032 39241 ft 447 kts 97°
2026-05-01 13:27 40.73648 5.91231 39238 ft 447 kts 97°
2026-05-01 13:28 40.72389 6.03436 39238 ft 448 kts 97°
2026-05-01 13:29 40.70686 6.19685 39241 ft 448 kts 97°
2026-05-01 13:31 40.68090 6.44083 39236 ft 449 kts 97°
2026-05-01 13:32 40.65877 6.64493 39230 ft 450 kts 97°
2026-05-01 13:33 40.63626 6.84910 39228 ft 450 kts 97°
2026-05-01 13:34 40.61806 7.01175 39230 ft 450 kts 97°
2026-05-01 13:35 40.60419 7.13428 39179 ft 451 kts 97°
2026-05-01 13:35 40.59468 7.21768 37730 ft 462 kts 98°
2026-05-01 13:36 40.58991 7.25930 37312 ft 457 kts 98°
2026-05-01 13:36 40.58522 7.29997 36889 ft 453 kts 98°
2026-05-01 13:36 40.57586 7.38108 36105 ft 443 kts 98°
2026-05-01 13:37 40.57123 7.42100 35699 ft 440 kts 98°
2026-05-01 13:37 40.56668 7.46060 35295 ft 436 kts 96°
2026-05-01 13:37 40.56493 7.50016 34888 ft 431 kts 86°
2026-05-01 13:37 40.56774 7.53917 34514 ft 426 kts 82°
2026-05-01 13:38 40.57505 7.61605 33659 ft 422 kts 81°
2026-05-01 13:38 40.57865 7.65463 32797 ft 431 kts 81°
2026-05-01 13:38 40.58222 7.69426 32006 ft 438 kts 82°
2026-05-01 13:39 40.58569 7.73406 31487 ft 438 kts 82°
2026-05-01 13:39 40.58906 7.77371 31111 ft 433 kts 82°
2026-05-01 13:39 40.59235 7.81284 30744 ft 428 kts 82°
2026-05-01 13:39 40.59560 7.85161 30325 ft 425 kts 82°
2026-05-01 13:40 40.59884 7.89019 29882 ft 422 kts 82°
2026-05-01 13:40 40.60202 7.92804 29449 ft 420 kts 82°
2026-05-01 13:40 40.60519 7.96608 29037 ft 417 kts 82°
2026-05-01 13:40 40.60832 8.00381 28657 ft 413 kts 82°
2026-05-01 13:41 40.61141 8.04120 28264 ft 409 kts 81°
2026-05-01 13:41 40.61447 8.07831 28000 ft 402 kts 81°
2026-05-01 13:41 40.61743 8.11437 27916 ft 391 kts 81°
2026-05-01 13:41 40.62033 8.14984 27607 ft 387 kts 81°
2026-05-01 13:42 40.62315 8.18503 27194 ft 387 kts 83°
2026-05-01 13:42 40.62084 8.22032 26742 ft 391 kts 105°
2026-05-01 13:42 40.60886 8.25240 26386 ft 391 kts 125°
2026-05-01 13:42 40.58991 8.27780 26026 ft 389 kts 144°
2026-05-01 13:43 40.56751 8.29734 25685 ft 386 kts 148°
2026-05-01 13:43 40.54462 8.31620 25033 ft 392 kts 148°
2026-05-01 13:43 40.52134 8.33532 24459 ft 396 kts 147°
2026-05-01 13:43 40.49835 8.35451 24090 ft 393 kts 147°
2026-05-01 13:44 40.47547 8.37387 23768 ft 389 kts 147°
2026-05-01 13:44 40.45284 8.39311 23416 ft 386 kts 147°
2026-05-01 13:44 40.43037 8.41225 23039 ft 384 kts 146°
2026-05-01 13:44 40.40798 8.43135 22678 ft 382 kts 146°
2026-05-01 13:45 40.38579 8.45028 22321 ft 379 kts 146°
2026-05-01 13:45 40.36378 8.46903 22094 ft 373 kts 146°
2026-05-01 13:45 40.34233 8.48730 21996 ft 363 kts 146°
2026-05-01 13:45 40.32125 8.50524 21722 ft 360 kts 146°
2026-05-01 13:46 40.30021 8.52312 21337 ft 360 kts 146°
2026-05-01 13:46 40.27921 8.54095 20984 ft 359 kts 146°
2026-05-01 13:46 40.25852 8.55843 20697 ft 356 kts 146°
2026-05-01 13:46 40.23770 8.57596 20383 ft 354 kts 146°
2026-05-01 13:47 40.21701 8.59336 20084 ft 352 kts 146°
2026-05-01 13:47 40.19644 8.61066 19785 ft 351 kts 146°
2026-05-01 13:47 40.17597 8.62786 19471 ft 349 kts 146°
2026-05-01 13:47 40.15560 8.64497 19156 ft 347 kts 146°
2026-05-01 13:48 40.13535 8.66197 18855 ft 345 kts 146°
2026-05-01 13:48 40.11521 8.67886 18543 ft 343 kts 146°
2026-05-01 13:48 40.09509 8.69572 18227 ft 342 kts 146°
2026-05-01 13:48 40.07514 8.71245 17942 ft 340 kts 146°
2026-05-01 13:49 40.05529 8.72908 17555 ft 340 kts 146°
2026-05-01 13:49 40.03516 8.74594 16762 ft 354 kts 146°
2026-05-01 13:49 40.01427 8.76341 16229 ft 358 kts 146°
2026-05-01 13:49 39.99336 8.78088 15884 ft 355 kts 146°
2026-05-01 13:50 39.97261 8.79823 15576 ft 352 kts 147°
2026-05-01 13:50 39.95206 8.81542 15223 ft 350 kts 147°
2026-05-01 13:50 39.93164 8.83250 14869 ft 349 kts 147°
2026-05-01 13:50 39.91129 8.84950 14528 ft 346 kts 147°
2026-05-01 13:51 39.89107 8.86639 14182 ft 344 kts 147°
2026-05-01 13:51 39.87088 8.88325 13808 ft 344 kts 147°
2026-05-01 13:51 39.85081 8.89999 13490 ft 341 kts 147°
2026-05-01 13:51 39.83088 8.91659 13161 ft 339 kts 147°
2026-05-01 13:52 39.81127 8.93292 12823 ft 338 kts 147°
2026-05-01 13:52 39.79154 8.94937 12483 ft 336 kts 147°
2026-05-01 13:52 39.77168 8.96598 12137 ft 335 kts 147°
2026-05-01 13:52 39.75238 8.98214 11821 ft 333 kts 146°
2026-05-01 13:53 39.73298 8.99837 11498 ft 330 kts 147°
2026-05-01 13:53 39.69449 9.03053 10850 ft 327 kts 146°
2026-05-01 13:53 39.67538 9.04635 10527 ft 325 kts 149°
2026-05-01 13:54 39.65432 9.05629 10179 ft 325 kts 172°
2026-05-01 13:54 39.63200 9.05457 9859 ft 322 kts 196°
2026-05-01 13:54 39.61124 9.04392 9568 ft 319 kts 205°
2026-05-01 13:54 39.59126 9.03147 9234 ft 318 kts 206°
2026-05-01 13:55 39.57148 9.01872 8916 ft 317 kts 207°
2026-05-01 13:55 39.55190 9.00532 8440 ft 320 kts 210°
2026-05-01 13:55 39.53261 8.99042 7967 ft 324 kts 211°
2026-05-01 13:55 39.51359 8.97541 7649 ft 322 kts 211°
2026-05-01 13:56 39.49450 8.96066 7327 ft 316 kts 211°
2026-05-01 13:56 39.47565 8.94637 6708 ft 316 kts 210°
2026-05-01 13:56 39.45679 8.93224 6207 ft 309 kts 210°
2026-05-01 13:56 39.43816 8.91825 5501 ft 309 kts 210°
2026-05-01 13:57 39.41960 8.90444 4830 ft 306 kts 207°
2026-05-01 13:57 39.40643 8.89839 4369 ft 304 kts 186°
2026-05-01 13:57 39.38625 8.90217 3970 ft 290 kts 153°
2026-05-01 13:57 39.37098 8.91834 3427 ft 282 kts 129°
2026-05-01 13:58 39.35832 8.93645 3200 ft 258 kts 134°
2026-05-01 13:58 39.34567 8.95128 2978 ft 235 kts 136°
2026-05-01 13:58 39.33366 8.96517 2505 ft 228 kts 137°
2026-05-01 13:58 39.32197 8.97825 2093 ft 217 kts 137°
2026-05-01 13:59 39.31088 8.99075 1645 ft 206 kts 139°
2026-05-01 13:59 39.30014 9.00239 1207 ft 197 kts 140°
2026-05-01 13:59 39.28978 9.01335 768 ft 188 kts 141°
2026-05-01 13:59 39.27995 9.02316 558 ft 167 kts 144°
2026-05-01 14:00 39.27124 9.03181 309 ft 150 kts 141°
2026-05-01 14:00 39.26348 9.04039 115 ft 144 kts 140°
2026-05-01 14:00 39.25637 9.04864 16 ft 123 kts 138°
2026-05-01 14:00 39.25149 9.05427 16 ft 48 kts 138°
2026-05-01 14:01 39.25042 9.05580 16 ft 13 kts 89°
2026-05-01 14:01 39.25081 9.05676 15 ft 10 kts 59°
2026-05-01 14:01 39.25139 9.05712 14 ft 10 kts 343°
2026-05-01 14:01 39.25189 9.05654 14 ft 10 kts 317°
2026-05-01 14:02 39.25241 9.05594 14 ft 12 kts 318°
2026-05-01 14:02 39.25320 9.05501 14 ft 18 kts 317°
2026-05-01 14:02 39.25389 9.05449 14 ft 8 kts 33°
2026-05-01 14:02 39.25398 9.05522 14 ft 8 kts 97°
2026-05-01 14:03 39.25387 9.05588 14 ft 7 kts 100°
2026-05-01 14:03 39.25377 9.05645 14 ft 7 kts 144°
2026-05-01 14:03 39.25348 9.05690 14 ft 7 kts 89°
2026-05-01 14:03 39.25373 9.05743 14 ft 7 kts 51°
2026-05-01 14:04 39.25403 9.05790 14 ft 7 kts 51°
2026-05-01 14:04 39.25431 9.05836 14 ft 7 kts 51°
2026-05-01 14:04 39.25429 9.05887 15 ft 7 kts 134°
2026-05-01 14:04 39.25403 9.05914 14 ft 0 kts 141°